Skip Page Navigation
NASA JPL Caltech
NASA Logo - Jet Propulsion Laboratory + View the NASA Portal
+ Center for Near-Earth Object Studies
JPL Home Earth Solar System Stars & Galaxies Technology
JPL Solar System Dynamics
BODIES ORBITS EPHEMERIDES TOOLS PHYSICAL DATA DISCOVERY FAQ SITE MAP
JPL Small-Body Database Browser
Search: [ help ]  
441144 (2007 TV180)
Classification: Mars-crossing Asteroid          SPK-ID: 2441144
Ephemeris | Orbit Diagram | Orbital Elements | Mission Design | Physical Parameters | Discovery Circumstances | Close-Approach Data ]

[ show orbit diagram ]
Orbital Elements at Epoch 2459000.5 (2020-May-31.0) TDB
Reference: JPL 11 (heliocentric ecliptic J2000)
 Element Value Uncertainty (1-sigma)   Units 
e .3483704712340016 3.9253e-07  
a 2.554923530174973 6.8287e-08 au
q 1.664863616001079 1.0467e-06 au
i 6.475223945701274 7.3096e-06 deg
node 63.61173426118519 7.4876e-05 deg
peri 283.3286209567569 9.7488e-05 deg
M 51.64519315689449 3.3412e-05 deg
tp 2458786.510388014339
(2019-Oct-30.01038801)
0.00013286 TDB
period 1491.64434492107
4.08
5.9803e-05
1.637e-07
d
yr
n .2413443936725074 9.6759e-09 deg/d
Q 3.444983444348868 9.2077e-08 au
  Orbit Determination Parameters
   # obs. used (total)      135  
   data-arc span      5733 days (15.70 yr)  
   first obs. used      2003-10-29  
   last obs. used      2019-07-10  
   planetary ephem.      DE431  
   SB-pert. ephem.      SB431-N16  
   condition code      0  
   norm. resid. RMS      .59928  
   source      ORB  
   producer      Otto Matic  
   solution date      2019-Sep-24 07:41:45  

Additional Information
 Earth MOID = .673485 au 
 Jupiter MOID = 2.02363 au 
 T_jup = 3.342 
[ show covariance matrix ]

Ephemeris | Orbit Diagram | Orbital Elements | Mission Design | Physical Parameters | Discovery Circumstances | Close-Approach Data ]

Physical Parameter Table
Parameter Symbol Value Units Sigma Reference Notes
absolute magnitude H 17.9   n/a MPO211721  

441144 (2007 TV180)          Discovered 2007-Oct-08 by LONEOS at Anderson Mesa
Reference: Last Updated: 2015-09-02

[ hide close-approach data ]
Close-Approach Data   ...sorted by Date/Time (TDB)
Date/Time (TDB) Time Uncertainty
(days_HH:MM)
Body Nominal Distance (au) Minimum Distance (au) Maximum Distance (au) V-relative (km/s) V-infinity (km/s) JD (TDB) Time Uncertainty (minutes) Semi-major axis (km) Semi-minor axis (km) range-LOV angle (deg) N-sigma BP Orbit Ref. Reference Modified
1956-Jul-22 11:18 00:07 Jupiter 1.99372690679942 1.99372378798883 1.99373002561682 0.381133977052967 n/a 2435676.970794109 7.31668758052898 308.122647209025 112.389241360786 -67.9943587853958 2486409.72374154 F 11 CATAB v2.0f-lin.ifort 2019-Sep-24 07:41:46 2019-Sep-24 07:41
2099-Apr-20 06:19 00:11 Jupiter 1.99980767703772 1.99980298709926 1.99981237487826 0.63000919353052 n/a 2487813.763144152 10.8690878311715 6707.38214748472 82.9191494008754 -88.1297601699824 3605149.48935127 F 11 CATAB v2.0f-lin.ifort 2019-Sep-24 07:41:46 2019-Sep-24 07:41

Alternate Designations
 2007 TV180 = 2003 WE90 
Ephemeris | Orbit Diagram | Orbital Elements | Mission Design | Physical Parameters | Discovery Circumstances | Close-Approach Data ]
ABOUT SSD CREDITS/AWARDS PRIVACY/COPYRIGHT GLOSSARY LINKS
FirstGov 2020-Aug-08 07:51 UT
(server date/time)  
NASA Home Page
Site Manager:   Ryan S. Park
Webmaster  Alan B. Chamberlin